Details for Air Canada at CYVR




Go Back


Latest METAR
Local Time

CYVR 220929Z 13008KT 15SM -RA FEW005 SCT022 OVC044 14/14 A2980 RMK SF1SC3SC4 SLP091 DENSITY ALT 100FT
22/09/2018, 02:36:03

Description
Results
Air Canada Logo
Number of Pilots based at CYVR
0 Pilots Based here
Number of Air Canada Flights Departed from CYVR
0 Flights Departed
Number of Air Canada Flights Arrived at CYVR
1 Flights Arrived
Number of Air Canada Schedules Departing from CYVR
71 Schedules
Number of Air Canada Schedules Arriving at CYVR
71 Schedules
Number of Air Canada Schedules Departing from CYVR availible today
58 Schedules Today
Number of Air Canada Schedules Arriving at CYVR availible today
58 Schedules Today
Average Landing Rate at CYVR
-292 fpm
Air Canada Average Landing Rate at CYVR
-457 fpm
Total Fuel Purchased at CYVR by Air Canada
0.00 kgs / 0.00 lbs

Pilots Based at CYVR


Pilot ID
Pilot Name
Pilot Rank
No. of Flights
No. of Flying Hours
There are no pilots assigned to this hub!   Will you be the first?
Content